Regional Weather Roundup
Issued by NWS

Home | Current Version | Previous Version | Graphics & Text | Print | Product List | Glossary Off
Versions: 1 2 3 4 5 6 7 8 9 10 11 12 13 14 15 16 17 18 19 20 21 22 23 24 25 26 27 28 29 30 31 32 33 34 35 36 37 38 39 40 41 42 43 44 45 46 47 48 49 50

487
ASUS43 KMKX 290611
RWRWI

WISCONSIN REGIONAL WEATHER ROUNDUP
NATIONAL WEATHER SERVICE MILWAUKEE/SULLIVAN WI
100 AM CDT WED MAR 29 2017

NOTE: "FAIR" INDICATES FEW OR NO CLOUDS BELOW 12,000 FEET WITH NO
SIGNIFICANT WEATHER AND/OR OBSTRUCTIONS TO VISIBILITY.

WIZ001-002-006>008-014>016-023>028-290700-
NORTHWEST WISCONSIN

CITY           SKY/WX    TMP DP  RH WIND       PRES   REMARKS
SUPERIOR ARPT  CLEAR     35  32  89 NE9       30.29F WCI  27
6HR MIN TEMP:  35; 6HR MAX TEMP:  38;

ASHLAND        CLEAR     33  29  85 NE7       30.29R WCI  27
6HR MIN TEMP:  31; 6HR MAX TEMP:  35;

HAYWARD        CLEAR     30  24  78 N7        30.23F WCI  23
6HR MIN TEMP:  30; 6HR MAX TEMP:  59;

SIREN          CLEAR     33  25  73 CALM      30.21F
6HR MIN TEMP:  31; 6HR MAX TEMP:  60;

CUMBERLAND     CLEAR     34  25  69 CALM      30.21F
RICE LAKE      CLEAR     33  29  85 CALM      30.22F
6HR MIN TEMP:  33; 6HR MAX TEMP:  58;

CHETEK         CLEAR     32  29  89 CALM      30.21F
6HR MIN TEMP:  32; 6HR MAX TEMP:  54;

LADYSMITH      CLEAR     40  27  61 E7        30.23F WCI  35
6HR MIN TEMP:  34; 6HR MAX TEMP:  57;

EAU CLAIRE     CLOUDY    35  29  78 CALM      30.20S
6HR MIN TEMP:  34; 6HR MAX TEMP:  58;

MENOMONIE      CLOUDY    38  31  77 CALM      30.21R
6HR MIN TEMP:  38; 6HR MAX TEMP:  59;

NEW RICHMOND   CLOUDY    35  31  83 CALM      30.19F
6HR MIN TEMP:  35; 6HR MAX TEMP:  57;

OSCEOLA        CLOUDY    34  28  80 CALM      30.22F
6HR MIN TEMP:  33; 6HR MAX TEMP:  60;

$$

WIZ003>005-009-010-017-018-290700-
NORTH CENTRAL WISCONSIN

CITY           SKY/WX    TMP DP  RH WIND       PRES   REMARKS
MANITOWISH WTR CLEAR     28  28  97 CALM      30.25S
6HR MIN TEMP:  27; 6HR MAX TEMP:  50;

ARBOR VITAE    CLEAR     36  31  80 CALM      30.24S
6HR MIN TEMP:  32; 6HR MAX TEMP:  57;

WOODRUFF       CLEAR     36  31  80 CALM      30.24S
6HR MIN TEMP:  32; 6HR MAX TEMP:  57;

RHINELANDER    CLEAR     33  27  78 E3        30.25S
6HR MIN TEMP:  33; 6HR MAX TEMP:  57;

EAGLE RIVER    CLEAR     28  26  92 N3        30.25S
6HR MIN TEMP:  27; 6HR MAX TEMP:  52;

LAND O LAKES   CLEAR     28  26  90 CALM      30.28R
6HR MIN TEMP:  28; 6HR MAX TEMP:  52;

PHILLIPS       CLEAR     30  25  81 CALM      30.23S
6HR MIN TEMP:  30; 6HR MAX TEMP:  57;

TOMAHAWK       CLEAR     28  25  87 CALM      30.25S
6HR MIN TEMP:  28; 6HR MAX TEMP:  53;

MEDFORD        CLEAR     32  29  89 E3        30.22F
6HR MIN TEMP:  32; 6HR MAX TEMP:  52;

MERRILL        CLEAR     29  27  93 CALM      30.25F
6HR MIN TEMP:  29; 6HR MAX TEMP:  56;

$$

WIZ029-030-035-036-043>047-290700-
CENTRAL WISCONSIN

CITY           SKY/WX    TMP DP  RH WIND       PRES   REMARKS
WAUSAU         CLEAR     37  30  75 E8        30.23S WCI  31
6HR MIN TEMP:  36; 6HR MAX TEMP:  56;

MOSINEE        CLEAR     36  30  80 E8        30.24F WCI  29
MARSHFIELD     CLEAR     39  30  70 E6        30.21F WCI  35
6HR MIN TEMP:  39; 6HR MAX TEMP:  54;

STEVENS POINT  CLEAR     29  27  92 NE5       30.24F WCI  24
6HR MIN TEMP:  28; 6HR MAX TEMP:  53;

WAUPACA        CLOUDY    34  32  91 N3        30.25F
6HR MIN TEMP:  33; 6HR MAX TEMP:  55;

WAUTOMA        CLOUDY    30  27  88 CALM      30.23F
6HR MIN TEMP:  30; 6HR MAX TEMP:  53;

WISC RAPIDS    CLOUDY    35  29  78 CALM      30.23F
6HR MIN TEMP:  34; 6HR MAX TEMP:  56;

CAMP DOUGLAS   CLOUDY    34  30  83 SE3       30.21F
6HR MIN TEMP:  33; 6HR MAX TEMP:  55;

$$

WIZ011>013-019>022-031-037>040-048>050-290700-
NORTHEAST WISCONSIN

CITY           SKY/WX    TMP DP  RH WIND       PRES   REMARKS
ANTIGO         CLEAR     34  28  77 SE6       30.26S WCI  29
6HR MIN TEMP:  33; 6HR MAX TEMP:  52;

SHAWANO        CLEAR     34  32  93 CALM      30.27F
6HR MIN TEMP:  33; 6HR MAX TEMP:  51;

OCONTO           N/A     28  28  99 CALM      30.28R VSB 1
6HR MIN TEMP:  28; 6HR MAX TEMP:  43;

STURGEON BAY   CLEAR     32  31  96 N5        30.29R WCI  27
6HR MIN TEMP:  30; 6HR MAX TEMP:  38;

GREEN BAY      CLEAR     34  34 100 NE3       30.26F
6HR MIN TEMP:  34; 6HR MAX TEMP:  47;

MANITOWOC      CLEAR     31  29  92 CALM      30.26S
6HR MIN TEMP:  31; 6HR MAX TEMP:  38;

APPLETON       CLEAR     34  32  93 N8        30.23F WCI  27
CLINTONVILLE   CLEAR     36  30  80 NE3       30.26F
OSHKOSH        CLOUDY    34  29  82 NE5       30.23S WCI  30
6HR MIN TEMP:  33; 6HR MAX TEMP:  49;

$$

WIZ032>034-041-042-053>061-290700-
SOUTHWEST WISCONSIN

CITY           SKY/WX    TMP DP  RH WIND       PRES   REMARKS
LA CROSSE      CLOUDY    45  35  68 SE5       30.20F
6HR MIN TEMP:  43; 6HR MAX TEMP:  59;

SPARTA         CLOUDY    32  31  94 CALM      30.22S
6HR MIN TEMP:  32; 6HR MAX TEMP:  57;

VIROQUA        CLOUDY    42  33  71 CALM      30.19F
6HR MIN TEMP:  41; 6HR MAX TEMP:  55;

BOSCOBEL       CLOUDY    39  36  89 E3        30.20S
6HR MIN TEMP:  37; 6HR MAX TEMP:  58;

PRAIRIE DU CHI CLOUDY    41  38  91 CALM      30.19S
6HR MIN TEMP:  40; 6HR MAX TEMP:  54;

PLATTEVILLE    CLOUDY    41  39  94 E7        30.19S
6HR MIN TEMP:  40; 6HR MAX TEMP:  52;

$$

WIZ056-057-062-063-064-067-068-290700-
SOUTH CENTRAL WISCONSIN

CITY           SKY/WX    TMP DP  RH WIND       PRES   REMARKS
REEDSBURG      CLOUDY    40  32  71 CALM      30.21F
6HR MIN TEMP:  40; 6HR MAX TEMP:  55;

BARABOO/DELLS  CLOUDY    39  33  76 E5        30.22S
6HR MIN TEMP:  38; 6HR MAX TEMP:  54;

LONE ROCK      PTCLDY    41  35  79 E6        30.20F
6HR MIN TEMP:  41; 6HR MAX TEMP:  55;

MINERAL POINT  CLOUDY    43  39  87 E9        30.19S
MADISON        PTCLDY    38  34  85 MISG      30.22F
6HR MIN TEMP:  37; 6HR MAX TEMP:  52;

MIDDLETON      PTCLDY    42  37  83 E8        30.22F
WATERTOWN      CLOUDY    33  33 100 E3        30.23F FOG
6HR MIN TEMP:  33; 6HR MAX TEMP:  49;

MONROE         CLOUDY    37  36  93 E7        30.20S WCI  32
JANESVILLE     FOG       36  36 100 E5        30.23R VSB 1/2 WCI  32
$$

WIZ051-052-058>065-066-070>072-290700-
SOUTHEAST WISCONSIN

CITY           SKY/WX    TMP DP  RH WIND       PRES   REMARKS
MILWAUKEE      FOG       34  33  96 W5        30.23F VSB 1/4 WCI  30
6HR MIN TEMP:  34; 6HR MAX TEMP:  36; 6HR PCP: TRACE;

WAUKESHA       FOG       32  32 100 CALM      30.24F VSB 1/4
MILWAUKEE/TIMM FOG       32  30  93 CALM      30.24F VSB 1/4
RACINE         FOG       32  32 100 NW3       30.25F VSB 1/2
6HR MIN TEMP:  32; 6HR MAX TEMP:  35;

KENOSHA        FOG       33  32  96 N5        30.23F VSB 1/4 WCI  29
6HR MIN TEMP:  33; 6HR MAX TEMP:  38;

FOND DU LAC    PTCLDY    36  31  82 S3        30.22F
6HR MIN TEMP:  34; 6HR MAX TEMP:  50;

SHEBOYGAN      CLOUDY    30  29  96 CALM      30.24S
6HR MIN TEMP:  30; 6HR MAX TEMP:  35;

WEST BEND      FOG       32  32 100 CALM      30.23F VSB 1/4
JUNEAU         CLEAR     34  33  95 CALM      30.24F FOG
6HR MIN TEMP:  34; 6HR MAX TEMP:  51;

$$

LSZ147-162-290700-
LAKE SUPERIOR

STATION/POSITION TIME  TEMP    WIND        PRES    WAVE
                       AIR SEA DIR/SP/G            HT/PER
                 (UTC) (F)     (DEG/KT/KT) (MB)    (FT/S)
DEVILS ISLAND    0600   37      60/ 19/ 21 1027.2R
PORT WING        0530   35      40/  8/ 11 1025.7S
SAXON HARBOR     0540   29     190/  2/  4 1025.1R
$$

LMZ867-665-643>646-290700-
LAKE MICHIGAN

STATION/POSITION TIME  TEMP    WIND        PRES    WAVE
                       AIR SEA DIR/SP/G            HT/PER
                 (UTC) (F)     (DEG/KT/KT) (MB)    (FT/S)
CHAMBERS ISLAND  0540   31        CALM     1024.7S
NORTHPORT PIER   0540   35     320/  6/  8 1025.4S
SISTER BAY



USA.gov is the U.S. government's official web portal to all federal, state and local government web resources and services.